This is the latest recevied weather packets stored in our database for station/object K0SNA. If no packets are shown the sender has not sent any weather packets the latest 10 day(s).
| Time | Temp. | Humidity | Pressure | Rain* | Wind** | Luminosity | Snow |
|---|---|---|---|---|---|---|---|
| 1778076691 | 3.89° C | 56% | 1017.4 hPa | 0 mm | - | 127 W/m² | - |
| 1778076388 | 3.89° C | 56% | 1017.3 hPa | 0 mm | - | 121 W/m² | - |
| 1778076085 | 3.89° C | 58% | 1017.4 hPa | 0 mm | - | 113 W/m² | - |
| 1778075782 | 3.89° C | 57% | 1017.3 hPa | 0 mm | - | 108 W/m² | - |
| 1778075478 | 3.33° C | 58% | 1017.3 hPa | 0 mm | - | 104 W/m² | - |
| 1778075175 | 3.33° C | 58% | 1017.1 hPa | 0 mm | - | 109 W/m² | - |
| 1778074870 | 3.33° C | 59% | 1017.3 hPa | 0 mm | - | 106 W/m² | - |
| 1778074568 | 3.33° C | 59% | 1017.3 hPa | 0 mm | - | 106 W/m² | - |
| 1778074265 | 3.33° C | 59% | 1017.3 hPa | 0 mm | - | 101 W/m² | - |
| 1778073962 | 3.33° C | 59% | 1017.1 hPa | 0 mm | - | 97 W/m² | - |
| 1778073659 | 3.33° C | 59% | 1017 hPa | 0 mm | - | 99 W/m² | - |
| 1778073356 | 3.33° C | 59% | 1017 hPa | 0 mm | - | 98 W/m² | - |
| 1778073052 | 3.33° C | 58% | 1016.9 hPa | 0 mm | - | 102 W/m² | - |
| 1778072749 | 3.33° C | 58% | 1016.8 hPa | 0 mm | - | 100 W/m² | - |
| 1778072447 | 3.33° C | 59% | 1016.9 hPa | 0 mm | - | 93 W/m² | - |
| 1778072145 | 3.33° C | 58% | 1016.9 hPa | 0 mm | - | 93 W/m² | - |
| 1778071843 | 3.33° C | 57% | 1016.8 hPa | 0 mm | - | 92 W/m² | - |
| 1778071540 | 3.33° C | 57% | 1016.6 hPa | 0 mm | - | 88 W/m² | - |
| 1778071238 | 3.89° C | 58% | 1016.6 hPa | 0 mm | - | 101 W/m² | - |
| 1778070936 | 3.33° C | 58% | 1016.5 hPa | 0 mm | - | 122 W/m² | - |
| 1778070634 | 3.33° C | 59% | 1016.6 hPa | 0 mm | - | 137 W/m² | - |
| 1778070330 | 3.33° C | 59% | 1016.3 hPa | 0 mm | - | 107 W/m² | - |
| 1778070028 | 2.78° C | 61% | 1016.3 hPa | 0 mm | - | 85 W/m² | - |
| 1778069726 | 2.78° C | 62% | 1016.3 hPa | 0 mm | - | 71 W/m² | - |
| 1778069421 | 2.78° C | 64% | 1016.2 hPa | 0 mm | - | 63 W/m² | - |
* Rain latest hour (hover to see other rain measurements)
** Current wind speed in m/s (hover to see current wind gust speed)